#timestamp,LO_Frequency,Hit,StdDev 
1543791615.2,286047033.1,N
1543791635.1,286047028.2,N
1543791636.0,286047028.2,N
1543791655.8,286047027.0,N
1543791675.7,286047030.9,Y
1543791695.5,286047009.6,P
1543791715.3,286047012.1,N
1543791735.2,286047013.7,N
1543791755.0,286047015.6,Y
1543791755.9,286047015.6,P
1543791775.7,286046999.7,N
1543791795.6,286046998.5,N
1543791815.4,286046999.4,N
1543791835.3,286046996.8,N
1543791855.1,286046997.7,N
1543791856.0,286046997.7,N
1543791875.8,286046993.4,N
1543791895.7,286046993.6,N
1543791915.5,286046993.0,N
1543791935.4,286046990.6,N
1543791955.2,286046991.6,N
1543791975.0,286046990.6,N
1543791975.9,286046990.6,N
1543791995.8,286046994.4,N
1543792015.6,286046993.6,N
1543792035.4,286046990.4,N
1543792055.3,286046989.3,N
1543792075.1,286046990.6,N
1543792095.8,286046993.1,N
1543792115.7,286046994.1,N
1543792135.5,286046996.2,N
1543792155.4,286046999.5,N
1543792175.2,286046997.9,N
1543792195.0,286046995.4,N
1543792195.9,286046995.4,N
1543792215.8,286046990.1,N
1543792235.6,286046986.8,N
1543792255.5,286046977.6,Y
1543792275.3,286046978.8,P
1543792295.1,286046972.9,P
1543792315.9,286046976.1,N
1543792335.7,286046980.0,N
1543792355.5,286046980.6,N
1543792375.4,286046985.5,N
1543792395.2,286046989.6,N
1543792415.0,286046988.7,N
1543792416.0,286046988.7,N
1543792435.8,286046988.1,N
1543792455.6,286046986.6,N
1543792475.5,286046986.2,N
1543792495.3,286046985.3,N
1543792515.1,286046986.1,N
1543792535.9,286046979.9,Y
1543792555.7,286046988.7,P
1543792575.5,286046983.8,P
1543792595.4,286046979.0,P
1543792615.2,286046977.1,Y
1543792635.1,286046989.5,P
1543792636.0,286046989.5,P
1543792655.8,286046986.3,P
1543792675.6,286046983.4,Y
1543792695.5,286046992.2,P
1543792715.3,286046991.8,P
1543792735.2,286046995.0,N
1543792755.9,286047002.7,N
1543792775.7,286047007.6,N
1543792795.6,286047011.6,N
1543792815.4,286047018.7,N
1543792835.2,286047020.9,N
1543792855.1,286047024.8,N
1543792856.0,286047024.8,N
1543792875.8,286047029.7,N
1543792895.7,286047031.2,N
1543792915.5,286047030.5,N
1543792935.3,286047030.4,N
1543792955.2,286047031.5,N
1543792975.0,286047032.9,N
1543792975.9,286047032.9,N
1543792995.8,286047032.0,N
1543793015.6,286047034.8,N
1543793035.4,286047032.4,N
1543793055.3,286047032.5,N
1543793075.1,286047034.1,N
1543793095.8,286047035.8,N
1543793115.7,286047039.3,N
1543793135.5,286047036.8,N
1543793155.4,286047033.2,N
1543793175.2,286047023.8,N
1543793195.0,286047020.1,N
1543793195.9,286047020.1,N
1543793215.8,286047014.9,N
1543793235.6,286047010.5,N
1543793255.4,286047005.6,N
1543793275.3,286046999.7,N
1543793295.1,286046999.6,N
1543793315.9,286046996.1,N
1543793335.7,286046992.3,N
1543793355.5,286046993.2,N
1543793375.4,286046989.7,N
1543793395.2,286046987.1,N
1543793415.0,286046984.4,N
1543793415.9,286046984.4,N
1543793435.8,286046985.1,N
1543793455.6,286046983.1,N
1543793475.5,286046979.4,N
1543793495.3,286046981.6,N
1543793515.1,286046980.4,N
1543793535.9,286046975.7,N
1543793555.7,286046976.8,N
1543793575.5,286046974.6,N
1543793595.4,286046974.8,N
1543793615.2,286046972.8,N
1543793635.1,286046973.9,N
1543793636.0,286046973.9,N
1543793655.8,286046972.3,N
1543793675.6,286046970.2,N
1543793695.5,286046968.3,N
1543793715.3,286046968.1,N
1543793735.1,286046968.7,N
1543793755.9,286046969.2,N
1543793775.7,286046966.4,N
1543793795.6,286046964.9,N
1543793815.4,286046965.8,Y
1543793835.2,286046985.1,P
1543793855.1,286046980.7,P
1543793856.0,286046980.7,P
1543793875.8,286046981.2,Y
1543793895.6,286047000.7,P
1543793915.5,286046996.7,N
1543793935.3,286046995.4,N
1543793955.2,286046995.8,N
1543793975.9,286046993.5,N
1543793995.7,286046994.5,N
1543794015.6,286046994.7,N
1543794035.4,286046992.3,N
1543794055.2,286046992.7,N
1543794075.1,286046992.4,N
1543794076.0,286046992.4,N
1543794095.8,286046990.6,N
1543794115.7,286046990.7,N
1543794135.5,286046990.8,N
1543794155.3,286046990.8,N
1543794175.2,286046990.7,N
1543794195.0,286046988.8,N
1543794195.9,286046988.8,N
1543794215.8,286046991.6,N
1543794235.6,286046989.1,N
1543794255.4,286046989.2,N
1543794275.3,286046986.9,Y
1543794295.1,286046997.7,P
1543794315.8,286046997.6,N
1543794335.7,286046995.7,N
1543794355.5,286046995.1,N
1543794375.4,286046996.3,N
1543794395.2,286046993.3,Y
1543794415.0,286046999.0,P
1543794415.9,286046999.0,N
1543794435.8,286046998.4,N
1543794455.6,286046996.7,N
1543794475.4,286046999.4,N
1543794495.3,286046999.3,N
1543794515.1,286046997.3,N
1543794535.9,286046997.6,N
1543794555.7,286046995.3,Y
1543794575.5,286046997.3,P
1543794595.4,286046997.9,P
1543794615.2,286046997.8,P
1543794635.1,286046994.9,Y
1543794636.0,286046994.9,P
1543794655.8,286047001.0,N
1543794675.6,286047002.4,N
1543794695.5,286047006.1,N
1543794715.3,286047013.2,Y
1543794735.1,286047023.5,P
1543794755.9,286047028.6,N
1543794775.7,286047034.3,N
1543794795.6,286047038.4,N
1543794815.4,286047044.1,Y
1543794835.2,286047020.6,P
1543794855.1,286047025.4,P
1543794856.0,286047025.4,P
1543794875.8,286047031.4,Y
1543794895.7,286047010.0,P
1543794915.5,286047008.2,N
1543794935.3,286047010.2,N
1543794955.2,286047011.3,N
1543794975.0,286047014.8,N
1543794975.9,286047014.8,N
1543794995.7,286047013.0,N
1543795015.6,286047018.8,Y
1543795035.4,286047008.9,P
1543795055.3,286047009.7,P
1543795075.1,286047012.1,P
1543795076.0,286047012.1,Y
1543795095.8,286047002.2,P
1543795115.7,286047000.4,N
1543795135.5,286047001.9,N
1543795155.4,286047003.5,N
1543795175.2,286047001.9,N
1543795195.0,286046999.5,N
1543795195.9,286046999.5,N
